KB9ZI Weather Reports


time (UTC)temp
C
wind
direction
speed
KPH
gust
KPH
rain 1hr
cm
rain 24hr
cm
rain mn
cm
humidity
%
barometer
mb
20260906231841 24 30 0.0 0.0 0.00 0.03 0.03 88 1017.4
20260906231741 24 30 0.0 0.0 0.00 0.03 0.03 88 1017.4
20260906231443 24 30 0.0 0.0 0.00 0.03 0.03 88 1017.4
20260906231242 24 28 0.0 0.0 0.00 0.03 0.03 88 1017.4
20260906231041 24 28 0.0 0.0 0.00 0.03 0.03 88 1017.3
20260906230952 24 28 0.0 0.0 0.00 0.03 0.03 88 1017.4
20260906230942 24 28 0.0 0.0 0.00 0.03 0.03 88 1017.4
20260906230641 24 28 0.0 0.0 0.00 0.03 0.03 88 1017.5
20260906230443 24 28 0.0 0.0 0.00 0.03 0.03 88 1017.3
20260906230344 24 28 0.0 0.0 0.00 0.03 0.03 88 1017.4
20260906230046 24 28 0.0 0.0 0.00 0.03 0.03 88 1017.4
20260906225942 24 30 0.0 0.0 0.00 0.03 0.03 87 1017.4
20260906225843 24 30 0.0 0.0 0.00 0.03 0.03 87 1017.4
20260906225641 24 28 0.0 0.0 0.00 0.03 0.03 87 1017.4
20260906225546 24 28 0.0 0.0 0.00 0.03 0.03 87 1017.4
20260906225443 24 28 0.0 0.0 0.00 0.03 0.03 87 1017.4
20260906225243 24 30 0.0 0.0 0.00 0.03 0.03 87 1017.4
20260906225041 24 30 0.0 0.0 0.00 0.03 0.03 87 1017.4
20260906224953 24 30 0.0 0.0 0.00 0.03 0.03 87 1017.5
20260906224941 24 28 0.0 0.0 0.00 0.03 0.03 87 1017.5
20260906224641 24 28 0.0 0.0 0.00 0.03 0.03 87 1017.4
20260906224442 24 28 0.0 0.0 0.00 0.03 0.03 87 1017.5
20260906224242 24 28 0.0 0.0 0.00 0.03 0.03 87 1017.5
20260906224041 24 28 0.0 0.0 0.00 0.03 0.03 87 1017.5
20260906223948 24 28 0.0 0.0 0.00 0.03 0.03 87 1017.6
20260906223941 24 28 0.0 0.0 0.00 0.03 0.03 87 1017.6
20260906223641 24 28 0.0 0.0 0.00 0.03 0.03 87 1017.6
20260906223545 24 28 0.0 0.0 0.00 0.03 0.03 87 1017.6
20260906223442 24 28 0.0 0.0 0.00 0.03 0.03 87 1017.6
20260906223241 24 28 0.0 0.0 0.00 0.03 0.03 87 1017.6
20260906223040 24 28 0.0 0.0 0.00 0.03 0.03 86 1017.6
20260906222942 24 28 0.0 0.0 0.00 0.03 0.03 86 1017.5
20260906222841 24 28 0.0 0.0 0.00 0.03 0.03 86 1017.5
20260906222640 24 28 0.0 0.0 0.00 0.03 0.03 86 1017.4
20260906222541 24 28 0.0 0.0 0.00 0.03 0.03 86 1017.3
20260906222441 24 28 0.0 0.0 0.00 0.03 0.03 86 1017.3
20260906222310 24 28 0.0 0.0 0.00 0.03 0.03 86 1017.3
20260906222241 24 28 0.0 0.0 0.00 0.03 0.03 86 1017.3
20260906222226 24 28 0.0 0.0 0.00 0.03 0.03 86 1017.3
20260906221841 24 28 0.0 0.0 0.00 0.03 0.03 86 1017.4
20260906221640 24 28 0.0 0.0 0.00 0.03 0.03 86 1017.3
20260906221443 24 28 0.0 0.0 0.00 0.03 0.03 86 1017.3
20260906221328 24 28 0.0 0.0 0.00 0.03 0.03 86 1017.3
20260906221242 24 28 0.0 0.0 0.00 0.03 0.03 86 1017.3
20260906221231 24 28 0.0 0.0 0.00 0.03 0.03 86 1017.3
20260906221211 24 28 0.0 0.0 0.00 0.03 0.03 86 1017.3
20260906220641 24 28 0.0 0.0 0.00 0.03 0.03 86 1017.3
20260906220441 24 28 0.0 0.0 0.00 0.03 0.03 86 1017.3
20260906220240 24 28 0.0 0.0 0.00 0.03 0.03 85 1017.3
20260906220231 24 28 0.0 0.0 0.00 0.03 0.03 85 1017.4
20260906220212 24 28 0.0 0.0 0.00 0.03 0.03 85 1017.3
20260906215841 24 28 0.0 0.0 0.00 0.03 0.03 85 1017.4
20260906215641 24 28 0.0 0.0 0.00 0.03 0.03 85 1017.4
20260906215633 24 28 0.0 0.0 0.00 0.03 0.03 85 1017.5
20260906215440 24 28 0.0 0.0 0.00 0.03 0.03 85 1017.4
20260906215234 24 28 0.0 0.0 0.00 0.03 0.03 85 1017.6
20260906215035 25 28 0.0 0.0 0.00 0.03 0.03 85 1017.7
20260906214951 25 28 0.0 0.0 0.00 0.03 0.03 84 1017.7
20260906214834 24 28 0.0 0.0 0.00 0.03 0.03 84 1017.7
20260906214732 25 44 0.0 0.0 0.00 0.03 0.03 84 1017.8
20260906214719 25 45 0.0 0.0 0.00 0.03 0.03 84 1017.7
20260906214649 25 44 0.0 0.0 0.00 0.03 0.03 84 1017.8
20260906214230 25 44 0.0 0.0 0.00 0.03 0.03 84 1017.8
20260906214225 25 47 0.0 0.0 0.00 0.03 0.03 84 1017.9
20260906213934 25 55 0.0 0.0 0.00 0.03 0.03 84 1017.9
20260906213829 25 55 0.0 0.0 0.00 0.03 0.03 84 1017.9
20260906213718 -17 52 0.0 0.0 0.00 0.03 0.03 1017.8
20260906213710 25 52 0.0 0.0 0.00 0.03 0.03 84 1017.8
20260906213644 -17 52 0.0 0.0 0.00 0.03 0.03 1017.8
20260906213108 -17 0.0 0.0 0.00 0.03 0.03
20260906213030 -17 0.0 0.0 0.00 0.03 0.03
20260906212907 -17 0.0 0.0 0.00 0.03 0.03
20260906212856 -17 0.0 0.0 0.00 0.03 0.03
20260906212806 -17 0.0 0.0 0.00 0.03 0.03
20260906212435 -17 0.0 0.0 0.00 0.03 0.03
20260906212236 -17 0.0 0.0 0.00 0.03 0.03
20260906212034 -17 0.0 0.0 0.00 0.03 0.03 1017.9
20260906211936 -17 0.0 0.0 0.00 0.03 0.03 1017.9
20260906211744 25 39 0.0 0.0 0.00 0.03 0.03 84 1017.9
20260906211736 -17 0.0 0.0 0.00 0.03 0.03 1017.9
20260906211421 25 39 0.0 0.0 0.00 0.03 0.03 84 1017.9
20260906211250 25 39 0.0 0.0 0.00 0.03 0.03 84 1017.9
20260906211004 25 39 0.0 0.0 0.00 0.03 0.03 84 1017.7
20260906210950 25 39 0.0 0.0 0.00 0.03 0.03 84 1017.7
20260906210750 25 39 0.0 0.0 0.00 0.03 0.03 84 1017.8
20260906210542 25 39 0.0 0.0 0.00 0.03 0.03 84 1017.7
20260906210449 25 38 0.0 0.0 0.00 0.03 0.03 84 1017.7
20260906210441 25 38 0.0 0.0 0.00 0.03 0.03 84 1017.8
20260906210141 25 37 0.0 0.0 0.00 0.03 0.03 84 1017.8
20260906205940 25 192 0.0 0.0 0.00 0.03 0.03 84 1017.9
20260906205838 25 164 0.0 0.0 0.00 0.03 0.03 84 1018.0
20260906205732 25 151 0.0 0.0 0.00 0.03 0.03 84 1018.0
20260906205712 25 151 0.0 0.0 0.00 0.03 0.03 84 1018.0
20260906205337 25 151 0.0 0.0 0.00 0.03 0.03 84 1018.0
20260906205134 25 149 0.0 0.0 0.00 0.03 0.03 84 1018.2
20260906205037 25 169 0.0 0.0 0.00 0.03 0.03 84 1018.2
20260906204945 25 169 0.0 0.0 0.00 0.03 0.03 84 1018.2
20260906204851 25 169 0.0 0.0 0.00 0.03 0.03 84 1018.3
20260906204735 25 169 0.0 0.0 0.00 0.03 0.03 84 1018.3
20260906204715 25 164 0.0 0.0 0.00 0.03 0.03 84 1018.4
20260906204307 25 147 0.0 0.0 0.00 0.03 0.03 84 1018.4
20260906204108 25 145 0.0 0.0 0.00 0.03 0.03 84 1018.3
20260906203931 25 154 0.0 0.0 0.00 0.03 0.03 85 1018.4
20260906203904 25 173 0.0 0.0 0.00 0.03 0.03 85 1018.4
20260906203728 25 165 0.0 0.0 0.00 0.03 0.03 85 1018.6
20260906203721 25 165 0.0 0.0 0.00 0.03 0.03 85 1018.4
20260906203654 25 165 0.0 0.0 0.00 0.03 0.03 85 1018.6
20260906203404 25 165 0.0 0.0 0.00 0.03 0.03 85 1018.4
20260906203204 25 165 0.0 0.0 0.00 0.03 0.03 85 1018.6
20260906202905 25 165 0.0 0.0 0.00 0.03 0.03 84 1018.7
20260906202701 24 186 0.0 0.0 0.00 0.03 0.03 84 1019.0
20260906202654 24 175 0.0 0.0 0.00 0.03 0.03 85 1018.9
20260906202626 24 186 0.0 0.0 0.00 0.03 0.03 84 1018.8
20260906202247 25 186 0.0 0.0 0.00 0.03 0.03 84 1019.0
20260906202209 25 186 0.0 0.0 0.00 0.03 0.03 85 1019.0
20260906202205 25 190 0.0 0.0 0.00 0.03 0.03 85 1019.1
20260906202142 25 188 0.0 0.0 0.00 0.03 0.03 84 1019.0
20260906201742 25 193 0.0 0.0 0.00 0.03 0.03 85 1019.0
20260906201441 25 209 0.0 0.0 0.00 0.03 0.03 85 1019.0
20260906201403 25 209 0.0 0.0 0.00 0.03 0.03 85 1019.0
20260906201238 25 166 0.0 0.0 0.00 0.03 0.03 84 1019.0
20260906201202 25 185 0.0 0.0 0.00 0.03 0.03 84 1018.9
20260906201140 25 173 0.0 0.0 0.00 0.03 0.03 85 1019.0
20260906200838 25 185 0.0 0.0 0.00 0.03 0.03 84 1019.0
20260906200734 25 200 0.0 0.0 0.00 0.03 0.03 84 1019.0
20260906200436 25 197 0.0 0.0 0.00 0.03 0.03 84 1018.9
20260906200400 25 214 0.0 0.0 0.00 0.03 0.03 84 1018.9
20260906200237 25 196 0.0 0.0 0.00 0.03 0.03 84 1018.9
20260906200150 25 173 0.0 0.0 0.00 0.03 0.03 84 1018.9
20260906200131 25 182 0.0 0.0 0.00 0.03 0.03 84 1018.9
20260906195809 25 186 0.0 0.0 0.00 0.03 0.03 84 1018.9
20260906195609 25 162 0.0 0.0 0.00 0.03 0.03 84 1018.8
20260906195504 25 197 0.0 0.0 0.00 0.03 0.03 83 1018.7
20260906195351 25 197 0.0 0.0 0.00 0.03 0.03 83 1018.7
20260906195301 25 166 0.0 0.0 0.00 0.03 0.03 83 1018.7
20260906195151 25 176 0.0 0.0 0.00 0.03 0.03 84 1018.7
20260906195125 25 213 0.0 0.0 0.00 0.03 0.03 84 1018.7
20260906194805 25 154 0.0 0.0 0.00 0.03 0.03 84 1018.8
20260906194603 25 166 0.0 0.0 0.00 0.03 0.03 84 1018.7
20260906194403 25 171 0.0 0.0 0.00 0.03 0.03 84 1018.7
20260906194348 25 171 0.0 0.0 0.00 0.03 0.03 84 1018.7
20260906194234 25 179 0.0 0.0 0.00 0.03 0.03 84 1018.7
20260906194203 25 199 0.0 0.0 0.00 0.03 0.03 84 1018.7
20260906194136 25 162 0.0 0.0 0.00 0.03 0.03 84 1018.7
20260906194116 25 169 0.0 0.0 0.00 0.03 0.03 84 1018.8
20260906193550 25 175 0.0 0.0 0.00 0.03 0.03 84 1018.8
20260906193352 25 176 0.0 0.0 0.00 0.03 0.03 84 1018.6
20260906193148 25 155 0.0 0.0 0.00 0.03 0.03 84 1018.7
20260906192948 25 178 0.0 0.0 0.00 0.03 0.03 84 1018.7
20260906192849 25 166 0.0 0.0 0.00 0.03 0.03 84 1018.7
20260906192749 25 180 0.0 0.0 0.00 0.03 0.03 84 1018.7
20260906192550 25 180 0.0 0.0 0.00 0.03 0.03 84 1018.7
20260906192349 25 180 0.0 0.0 0.00 0.03 0.03 84 1018.7
20260906192253 25 180 0.0 0.0 0.00 0.03 0.03 84 1018.7
20260906191949 25 173 0.0 0.0 0.00 0.03 0.03 83 1018.8
20260906191853 25 138 0.0 0.0 0.00 0.03 0.03 83 1018.8
20260906191848 25 161 0.0 0.0 0.00 0.03 0.03 83 1018.7
20260906191549 25 176 0.0 0.0 0.00 0.03 0.03 84 1018.7
20260906191351 25 217 0.0 0.0 0.00 0.03 0.03 84 1018.7
20260906191148 25 316 0.0 0.0 0.00 0.03 0.03 84 1018.7
20260906190948 25 28 0.0 0.0 0.00 0.03 0.03 84 1018.8
20260906190855 25 25 0.0 0.0 0.00 0.03 0.03 85 1018.7
20260906190849 25 27 0.0 0.0 0.00 0.03 0.03 85 1018.7
20260906190550 25 180 0.0 0.0 0.00 0.03 0.03 84 1018.7
20260906190448 25 180 0.0 0.0 0.00 0.03 0.03 84 1018.7
20260906190349 25 180 0.0 0.0 0.00 0.03 0.03 84 1018.7
20260906190154 25 24 0.0 0.0 0.00 0.03 0.03 84 1018.8
20260906190149 25 83 0.0 0.0 0.00 0.03 0.03 84 1018.7
20260906190116 25 130 0.0 0.0 0.00 0.03 0.03 84 1018.8
20260906185748 25 166 0.0 0.0 0.00 0.03 0.03 84 1018.8
20260906185551 25 32 0.0 0.0 0.00 0.03 0.03 85 1018.6
20260906185452 25 183 0.0 0.0 0.00 0.03 0.03 85 1018.4
20260906185349 25 183 0.0 0.0 0.00 0.03 0.03 85 1018.4
20260906185148 25 16 0.0 0.0 0.00 0.03 0.03 85 1018.4
20260906185043 25 197 0.0 0.0 0.00 0.03 0.03 84 1018.4
20260906184852 25 200 0.0 0.0 0.00 0.03 0.03 84 1018.4
20260906184748 25 192 0.0 0.0 0.00 0.03 0.03 84 1018.4
20260906184646 25 24 0.0 0.0 0.00 0.03 0.03 85 1018.6
20260906184630 25 20 0.0 0.0 0.00 0.03 0.03 84 1018.6
20260906184601 25 24 0.0 0.0 0.00 0.03 0.03 85 1018.6
20260906184143 25 189 0.0 0.0 0.00 0.03 0.03 85 1018.4
20260906183948 25 34 0.0 0.0 0.00 0.03 0.03 85 1018.3
20260906183848 24 216 0.0 0.0 0.00 0.03 0.03 85 1018.3
20260906183748 24 216 0.0 0.0 0.00 0.03 0.03 85 1018.3
20260906183651 24 151 0.0 0.0 0.00 0.03 0.03 84 1018.4
20260906183634 24 183 0.0 0.0 0.00 0.03 0.03 84 1018.3
20260906183601 24 151 0.0 0.0 0.00 0.03 0.03 84 1018.4
20260906183249 24 127 0.0 0.0 0.00 0.03 0.03 84 1018.3
20260906183054 24 173 0.0 0.0 0.00 0.03 0.03 85 1018.6
20260906182849 24 172 0.0 0.0 0.00 0.03 0.03 85 1018.6
20260906182749 24 244 0.0 0.0 0.00 0.03 0.03 85 1018.6
20260906182642 24 182 0.0 0.0 0.00 0.03 0.03 84 1018.4
20260906182629 24 34 0.0 0.0 0.00 0.03 0.03 85 1018.6
20260906182601 24 182 0.0 0.0 0.00 0.03 0.03 84 1018.4
20260906182148 24 171 0.0 0.0 0.00 0.03 0.03 84 1018.4
20260906181950 24 166 0.0 0.0 0.00 0.03 0.03 84 1018.3
20260906181854 25 162 0.0 0.0 0.00 0.03 0.03 85 1018.4
20260906181849 24 172 0.0 0.0 0.00 0.03 0.03 84 1018.3
20260906181648 24 138 0.0 0.0 0.00 0.03 0.03 85 1018.4
20260906181349 24 27 0.0 0.0 0.00 0.03 0.03 85 1018.4
20260906181148 24 288 0.0 0.0 0.00 0.03 0.03 85 1018.6
20260906180948 24 154 0.0 0.0 0.00 0.03 0.03 86 1018.7
20260906180848 24 134 0.0 0.0 0.00 0.03 0.03 85 1018.7
20260906180747 24 28 0.0 0.0 0.00 0.03 0.03 85 1018.7
20260906180640 24 282 0.0 0.0 0.00 0.03 0.03 86 1018.8
20260906180626 24 24 0.0 0.0 0.00 0.03 0.03 86 1018.8
20260906180148 24 20 0.0 0.0 0.00 0.03 0.03 86 1018.7
20260906180052 24 320 0.0 0.0 0.00 0.03 0.03 86 1018.7
20260906175848 24 20 0.0 0.0 0.00 0.03 0.03 85 1018.7
20260906175748 24 68 0.0 0.0 0.00 0.03 0.03 85 1018.7
20260906175730 24 62 0.0 0.0 0.00 0.03 0.03 85 1018.6
20260906175640 24 37 0.0 0.0 0.00 0.03 0.03 86 1018.6
20260906175601 24 37 0.0 0.0 0.00 0.03 0.03 86 1018.6
20260906175149 24 24 0.0 0.0 0.00 0.03 0.03 86 1018.6
20260906174950 24 35 0.0 0.0 0.00 0.03 0.03 86 1018.4
20260906174850 24 49 0.0 0.0 0.00 0.03 0.03 86 1018.4
20260906174749 24 42 0.0 0.0 0.00 0.03 0.03 87 1018.4
20260906174737 24 31 0.0 0.0 0.00 0.03 0.03 86 1018.4
20260906174646 24 30 0.0 0.0 0.00 0.03 0.03 86 1018.3
20260906174601 24 30 0.0 0.0 0.00 0.03 0.03 86 1018.3
20260906174246 24 329 0.0 0.0 0.00 0.03 0.03 87 1018.6
20260906173948 23 45 0.0 0.0 0.00 0.03 0.03 87 1018.4
20260906173849 23 283 0.0 0.0 0.00 0.03 0.03 86 1018.4
20260906173748 23 20 0.0 0.0 0.00 0.03 0.03 86 1018.6
20260906173551 23 175 0.0 0.0 0.00 0.03 0.03 86 1018.6
20260906173349 23 44 0.0 0.0 0.00 0.03 0.03 87 1018.6
20260906173249 23 76 0.0 0.0 0.00 0.03 0.03 87 1018.7
20260906172950 23 188 0.0 0.0 0.00 0.03 0.03 87 1018.8
20260906172853 23 32 0.0 0.0 0.00 0.03 0.03 87 1018.7
20260906172848 23 54 0.0 0.0 0.00 0.03 0.03 87 1018.8
20260906172550 23 0 0.0 0.0 0.00 0.03 0.03 87 1018.9
20260906172351 23 237 0.0 0.0 0.00 0.03 0.03 87 1018.9
20260906172148 23 39 0.0 0.0 0.00 0.03 0.03 87 1018.9
20260906172139 23 28 0.0 0.0 0.00 0.03 0.03 88 1018.9
20260906172113 23 54 0.0 0.0 0.00 0.03 0.03 88 1018.9
20260906171748 23 130 0.0 0.0 0.00 0.03 0.03 88 1019.0
20260906171649 23 49 0.0 0.0 0.00 0.03 0.03 88 1019.0
20260906171349 23 52 0.0 0.0 0.00 0.03 0.03 88 1019.1
20260906171250 23 24 0.0 0.0 0.00 0.03 0.03 88 1019.0
20260906171138 23 97 0.0 0.0 0.00 0.03 0.03 89 1019.0
20260906171113 23 227 0.0 0.0 0.00 0.03 0.03 88 1019.0
20260906170750 23 130 0.0 0.0 0.00 0.03 0.03 89 1019.0
20260906170549 23 51 0.0 0.0 0.00 0.03 0.03 89 1019.0
20260906170349 23 110 0.0 0.0 0.00 0.03 0.03 89 1019.0
20260906170251 23 72 0.0 0.0 0.00 0.03 0.03 89 1019.0
20260906170142 23 0 0.0 0.0 0.00 0.03 0.03 89 1019.1
20260906170138 23 353 0.0 0.0 0.00 0.03 0.03 89 1019.2
20260906170111 23 27 0.0 0.0 0.00 0.03 0.03 89 1019.0
20260906165550 23 172 0.0 0.0 0.00 0.03 0.03 89 1019.3
20260906165349 23 21 0.0 0.0 0.00 0.03 0.03 89 1019.3
20260906165148 23 195 0.0 0.0 0.00 0.03 0.03 89 1019.3
20260906164947 23 186 0.0 0.0 0.00 0.03 0.03 89 1019.3
20260906164853 23 186 0.0 0.0 0.00 0.03 0.03 89 1019.3
20260906164849 23 186 0.0 0.0 0.00 0.03 0.03 89 1019.3
20260906164549 23 82 0.0 0.0 0.00 0.03 0.03 90 1019.4
20260906164349 23 195 0.0 0.0 0.00 0.03 0.03 89 1019.4
20260906164148 23 44 0.0 0.0 0.00 0.03 0.03 89 1019.4
20260906164134 23 32 0.0 0.0 0.00 0.03 0.03 89 1019.4
20260906164110 23 32 0.0 0.0 0.00 0.03 0.03 89 1019.4
20260906163750 23 32 0.0 0.0 0.00 0.03 0.03 89 1019.4
20260906163650 23 48 0.0 0.0 0.00 0.03 0.03 89 1019.4
20260906163351 23 41 0.0 0.0 0.00 0.03 0.03 89 1019.3
20260906163252 23 35 0.0 0.0 0.00 0.03 0.03 90 1019.3
20260906163134 23 41 0.0 0.0 0.00 0.03 0.03 89 1019.2
20260906163112 23 76 0.0 0.0 0.00 0.03 0.03 89 1019.2
20260906162747 23 41 0.0 0.0 0.00 0.03 0.03 89 1019.2
20260906162548 23 0 0.0 0.0 0.00 0.03 0.03 89 1019.1
20260906162351 23 14 0.0 0.0 0.00 0.03 0.03 89 1019.1
20260906162246 23 76 0.0 0.0 0.00 0.03 0.03 90 1019.1
20260906162139 23 39 0.0 0.0 0.00 0.03 0.03 90 1019.2
20260906162135 23 56 0.0 0.0 0.00 0.03 0.03 90 1019.3
20260906162111 23 109 0.0 0.0 0.00 0.03 0.03 90 1019.2
20260906161549 23 42 0.0 0.0 0.00 0.03 0.03 90 1019.3
20260906161349 23 37 0.0 0.0 0.00 0.03 0.03 90 1019.3
20260906161150 23 49 0.0 0.0 0.00 0.03 0.03 91 1019.3
20260906161141 23 165 0.0 0.0 0.00 0.03 0.03 91 1019.3
20260906161136 23 80 0.0 0.0 0.00 0.03 0.03 91 1019.3
20260906161112 23 159 0.0 0.0 0.00 0.03 0.03 91 1019.3
20260906160548 22 32 0.0 0.0 0.00 0.03 0.03 91 1019.3
20260906160350 22 20 0.0 0.0 0.00 0.03 0.03 91 1019.3
20260906160147 22 182 0.0 0.0 0.00 0.03 0.03 91 1019.3
20260906155949 22 37 0.0 0.0 0.00 0.03 0.03 91 1019.3
20260906155849 22 175 0.0 0.0 0.00 0.03 0.03 91 1019.4
20260906155747 22 0 0.0 0.0 0.00 0.03 0.03 91 1019.3
20260906155544 22 331 0.0 0.0 0.00 0.03 0.03 91 1019.2
20260906155450 22 172 0.0 0.0 0.00 0.03 0.03 92 1019.2
20260906155346 22 172 0.0 0.0 0.00 0.03 0.03 92 1019.2
20260906155243 22 20 0.0 0.0 0.00 0.03 0.03 92 1019.1
20260906154944 22 164 0.0 0.0 0.00 0.03 0.03 92 1019.1
20260906154845 22 52 0.0 0.0 0.00 0.03 0.03 93 1019.1
20260906154746 22 168 0.0 0.0 0.00 0.03 0.03 93 1019.1
20260906154540 22 162 0.0 0.0 0.00 0.03 0.03 93 1019.1
20260906154346 22 55 0.0 0.0 0.00 0.03 0.03 93 1019.2
20260906154339 22 76 0.0 0.0 0.00 0.03 0.03 93 1019.2
20260906154138 22 175 0.0 0.0 0.00 0.03 0.03 93 1019.2
20260906154033 22 217 0.0 0.0 0.00 0.03 0.03 93 1019.2
20260906153845 22 217 0.0 0.0 0.00 0.03 0.03 93 1019.2
20260906153828 22 137 0.0 0.0 0.00 0.03 0.03 93 1019.1
20260906153530 22 48 0.0 0.0 0.00 0.03 0.03 93 1019.1
20260906153345 22 47 0.0 0.0 0.00 0.03 0.03 94 1019.1
20260906153332 22 44 0.0 0.0 0.00 0.03 0.03 94 1019.1
20260906153130 22 31 0.0 0.0 0.00 0.03 0.03 94 1019.1
20260906152930 22 41 0.0 0.0 0.00 0.03 0.03 94 1019.2
20260906152844 22 48 0.0 0.0 0.00 0.03 0.03 94 1019.2
20260906152731 22 1 0.0 0.0 0.00 0.03 0.03 95 1019.2
20260906152635 22 32 0.0 0.0 0.00 0.03 0.03 95 1019.3
20260906152348 22 202 0.0 0.0 0.00 0.03 0.03 94 1019.3
20260906152331 22 226 0.0 0.0 0.00 0.03 0.03 94 1019.3
20260906152132 22 158 0.0 0.0 0.00 0.03 0.03 95 1019.4
20260906151929 21 158 0.0 0.0 0.00 0.03 0.03 95 1019.5
20260906151845 21 182 0.0 0.0 0.00 0.03 0.03 95 1019.5
20260906151727 21 17 0.0 0.0 0.00 0.03 0.03 95 1019.5
20260906151622 21 227 0.0 0.0 0.00 0.03 0.03 95 1019.5
20260906151344 21 204 0.0 0.0 0.00 0.03 0.03 95 1019.4
20260906151325 21 13 0.0 0.0 0.00 0.03 0.03 95 1019.5
20260906151234 21 66 0.0 0.0 0.00 0.03 0.03 95 1019.5
20260906150903 21 69 0.0 0.0 0.00 0.03 0.03 95 1019.5
20260906150845 21 41 0.0 0.0 0.00 0.03 0.03 95 1019.5
20260906150703 21 169 0.0 0.0 0.00 0.03 0.03 95 1019.6
20260906150509 21 38 0.0 0.0 0.00 0.03 0.03 96 1019.5
20260906150344 21 38 0.0 0.0 0.00 0.03 0.03 96 1019.5
20260906150305 21 27 0.0 0.0 0.00 0.03 0.03 96 1019.4
20260906150207 21 178 0.0 0.0 0.00 0.03 0.03 96 1019.5
20260906145905 21 62 0.0 0.0 0.00 0.03 0.03 96 1019.5
20260906145845 21 61 0.0 0.0 0.00 0.03 0.03 96 1019.5
20260906145806 21 25 0.0 0.0 0.00 0.03 0.03 96 1019.5
20260906145506 21 28 0.0 0.0 0.00 0.03 0.03 96 1019.4
20260906145345 21 25 0.0 0.0 0.00 0.03 0.03 96 1019.5
20260906145306 21 32 0.0 0.0 0.00 0.03 0.03 96 1019.5
20260906145102 21 37 0.0 0.0 0.00 0.03 0.03 96 1019.4
20260906144903 21 47 0.0 0.0 0.00 0.03 0.03 96 1019.4
20260906144845 21 193 0.0 0.0 0.00 0.03 0.03 96 1019.4
20260906144801 21 37 0.0 0.0 0.00 0.03 0.03 96 1019.3
20260906144512 21 159 0.0 0.0 0.00 0.03 0.03 96 1019.4
20260906144503 21 90 0.0 0.0 0.00 0.03 0.03 96 1019.3
20260906144340 21 80 0.0 0.0 0.00 0.03 0.03 96 1019.4
20260906144142 21 38 0.0 0.0 0.00 0.03 0.03 96 1019.3
20260906144132 21 159 0.0 0.0 0.00 0.03 0.03 96 1019.3
20260906144059 21 79 0.0 0.0 0.00 0.03 0.03 96 1019.3
20260906143702 21 147 0.0 0.0 0.00 0.03 0.03 96 1019.4
20260906143504 21 44 0.0 0.0 0.00 0.03 0.03 96 1019.4
20260906143339 21 31 0.0 0.0 0.00 0.03 0.03 96 1019.3
20260906143303 21 49 0.0 0.0 0.00 0.03 0.03 96 1019.3
20260906143219 21 39 0.0 0.0 0.00 0.03 0.03 96 1019.3
20260906143153 21 34 0.0 0.0 0.00 0.03 0.03 96 1019.4
20260906143128 21 37 0.0 0.0 0.00 0.03 0.03 96 1019.4
20260906142704 21 35 0.0 0.0 0.00 0.03 0.03 96 1019.4
20260906142504 21 45 0.0 0.0 0.00 0.03 0.03 96 1019.3
20260906142338 21 86 0.0 0.0 0.00 0.03 0.03 96 1019.4
20260906142306 21 28 0.0 0.0 0.00 0.03 0.03 96 1019.4
20260906142143 21 8 0.0 0.0 0.00 0.03 0.03 96 1019.3
20260906142130 21 41 0.0 0.0 0.00 0.03 0.03 96 1019.4
20260906142053 21 8 0.0 0.0 0.00 0.03 0.03 96 1019.4
20260906141653 21 73 0.0 0.0 0.00 0.03 0.03 96 1019.4
20260906141646 21 138 0.0 0.0 0.00 0.03 0.03 96 1019.3
20260906141335 21 30 0.0 0.0 0.00 0.03 0.03 96 1019.2
20260906141246 21 42 0.0 0.0 0.00 0.03 0.03 96 1019.2
20260906141049 21 37 0.0 0.0 0.00 0.03 0.03 96 1019.2
20260906140836 21 131 0.0 0.0 0.00 0.03 0.03 96 1019.2
20260906140648 21 27 0.0 0.0 0.00 0.03 0.03 96 1019.2
20260906140447 21 27 0.0 0.0 0.00 0.03 0.03 96 1019.1
20260906140335 21 45 0.0 0.0 0.00 0.03 0.03 96 1019.2
20260906140243 21 45 0.0 0.0 0.00 0.03 0.03 96 1019.2
20260906140038 21 100 0.0 0.0 0.00 0.03 0.03 97 1019.2
20260906135833 21 107 0.0 0.0 0.00 0.03 0.03 97 1019.2
20260906135637 21 28 0.0 0.0 0.00 0.03 0.03 97 1019.3
20260906135441 21 144 0.0 0.0 0.00 0.03 0.03 97 1019.3
20260906135436 21 166 0.0 0.0 0.00 0.03 0.03 97 1019.4
20260906135335 21 152 0.0 0.0 0.00 0.03 0.03 97 1019.3
20260906135033 21 234 0.0 0.0 0.00 0.03 0.03 97 1019.3
20260906134837 21 97 0.0 0.0 0.00 0.03 0.03 97 1019.2
20260906134831 21 17 0.0 0.0 0.00 0.03 0.03 97 1019.2
20260906134633 21 116 0.0 0.0 0.00 0.03 0.03 97 1019.2
20260906134431 21 35 0.0 0.0 0.00 0.03 0.03 97 1019.2
20260906134331 21 35 0.0 0.0 0.00 0.03 0.03 97 1019.2
20260906134232 21 30 0.0 0.0 0.00 0.03 0.03 97 1019.1
20260906134035 21 41 0.0 0.0 0.00 0.03 0.03 97 1019.1
20260906134031 21 317 0.0 0.0 0.00 0.03 0.03 97 1019.1
20260906133833 21 41 0.0 0.0 0.00 0.03 0.03 97 1019.1
20260906133634 21 110 0.0 0.0 0.00 0.03 0.03 97 1019.0
20260906133435 21 209 0.0 0.0 0.00 0.03 0.03 97 1019.0
20260906133334 21 209 0.0 0.0 0.00 0.03 0.03 97 1019.0
20260906133235 21 209 0.0 0.0 0.00 0.03 0.03 97 1019.0
20260906133004 21 31 0.0 0.0 0.00 0.03 0.03 97 1018.9
20260906132832 21 47 0.0 0.0 0.00 0.03 0.03 97 1018.9
20260906132804 21 127 0.0 0.0 0.00 0.03 0.03 97 1018.9
20260906132604 21 42 0.0 0.0 0.00 0.03 0.03 97 1018.9
20260906132349 21 38 0.0 0.0 0.00 0.03 0.03 97 1019.0
20260906132331 21 38 0.0 0.0 0.00 0.03 0.03 97 1018.9
20260906132251 21 17 0.0 0.0 0.00 0.03 0.03 97 1018.9
20260906131950 21 14 0.0 0.0 0.00 0.03 0.03 97 1018.9
20260906131830 21 13 0.0 0.0 0.00 0.03 0.03 97 1018.9
20260906131748 21 13 0.0 0.0 0.00 0.03 0.03 97 1018.9
20260906131547 21 49 0.0 0.0 0.00 0.03 0.03 97 1018.8
20260906131331 21 37 0.0 0.0 0.00 0.03 0.03 97 1018.7
20260906131253 21 35 0.0 0.0 0.00 0.03 0.03 97 1018.7
20260906130949 20 47 0.0 0.0 0.00 0.03 0.03 97 1018.6
20260906130834 20 47 0.0 0.0 0.00 0.03 0.03 97 1018.6
20260906130827 20 47 0.0 0.0 0.00 0.03 0.03 97 1018.4
20260906130529 20 54 0.0 0.0 0.00 0.03 0.03 97 1018.4
20260906130331 20 16 0.0 0.0 0.00 0.03 0.03 97 1018.6
20260906130130 20 37 0.0 0.0 0.00 0.03 0.03 97 1018.6
20260906125930 20 32 0.0 0.0 0.00 0.03 0.03 97 1018.3
20260906125839 20 32 0.0 0.0 0.00 0.03 0.03 97 1018.4
20260906125831 20 32 0.0 0.0 0.00 0.03 0.03 97 1018.4
20260906125530 20 32 0.0 0.0 0.00 0.03 0.03 97 1018.4
20260906125439 20 31 0.0 0.0 0.00 0.03 0.03 97 1018.4
20260906125333 20 31 0.0 0.0 0.00 0.03 0.03 97 1018.4
20260906125104 20 31 0.0 0.0 0.00 0.03 0.03 97 1018.4
20260906124855 20 44 0.0 0.0 0.00 0.03 0.03 97 1018.4
20260906124818 20 38 0.0 0.0 0.00 0.03 0.03 97 1018.4
20260906124657 20 45 0.0 0.0 0.00 0.03 0.03 97 1018.3
20260906124455 20 47 0.0 0.0 0.00 0.03 0.03 97 1018.4
20260906124355 20 47 0.0 0.0 0.00 0.03 0.03 97 1018.3
20260906124314 20 47 0.0 0.0 0.00 0.03 0.03 97 1018.3
20260906124150 20 47 0.0 0.0 0.00 0.03 0.03 97 1018.4
20260906123855 20 39 0.0 0.0 0.00 0.03 0.03 97 1018.4
20260906123811 20 38 0.0 0.0 0.00 0.03 0.03 97 1018.4
20260906123651 20 37 0.0 0.0 0.00 0.03 0.03 97 1018.4
20260906123545 20 37 0.0 0.0 0.00 0.03 0.03 97 1018.4
20260906123309 20 35 0.0 0.0 0.00 0.03 0.03 97 1018.3
20260906123247 20 35 0.0 0.0 0.00 0.03 0.03 97 1018.3
20260906123049 20 44 0.0 0.0 0.00 0.03 0.03 97 1018.6
20260906122849 20 44 0.0 0.0 0.00 0.03 0.03 97 1018.4
20260906122804 20 44 0.0 0.0 0.00 0.03 0.03 97 1018.4
20260906122745 20 44 0.0 1.6 0.00 0.03 0.03 97 1018.3
20260906122433 20 45 0.0 1.6 0.00 0.03 0.03 97 1018.4
20260906122300 20 45 0.0 1.6 0.00 0.03 0.03 97 1018.4
20260906122231 20 45 0.0 1.6 0.00 0.03 0.03 97 1018.4
20260906122129 20 45 0.0 3.2 0.00 0.03 0.03 97 1018.4
20260906121832 20 45 0.0 3.2 0.00 0.03 0.03 97 1018.4
20260906121800 20 45 0.0 3.2 0.00 0.03 0.03 97 1018.4
20260906121630 20 45 0.0 3.2 0.00 0.03 0.03 97 1018.4
20260906121434 20 45 0.0 3.2 0.00 0.03 0.03 97 1018.3
20260906121336 20 45 0.0 3.2 0.00 0.03 0.03 97 1018.3
20260906121301 20 45 0.0 3.2 0.00 0.03 0.03 97 1018.4
20260906121035 20 47 0.0 3.2 0.00 0.03 0.03 97 1018.3
20260906120831 20 47 0.0 3.2 0.00 0.03 0.03 97 1018.3
20260906120801 20 47 0.0 3.2 0.00 0.03 0.03 97 1018.3
20260906120730 20 45 0.0 3.2 0.00 0.03 0.03 97 1018.4
20260906120555 20 47 0.0 3.2 0.00 0.03 0.03 97 1018.4
20260906120537 20 45 0.0 3.2 0.00 0.03 0.03 97 1018.4
20260906120230 20 47 0.0 3.2 0.00 0.03 0.03 97 1018.3
20260906120100 20 47 0.0 3.2 0.00 0.03 0.03 97 1018.2
20260906120052 20 47 0.0 3.2 0.00 0.03 0.03 97 1018.3
20260906120022 20 47 0.0 3.2 0.00 0.03 0.03 97 1018.2
20260906115735 20 47 0.0 3.2 0.00 0.03 0.03 97 1018.1
20260906115404 20 47 0.0 3.2 0.00 0.03 0.03 97 1018.2
20260906115305 20 47 0.0 3.2 0.00 0.03 0.03 97 1018.2
20260906115203 20 47 0.0 1.6 0.00 0.03 0.03 97 1018.2
20260906115056 20 47 0.0 3.2 0.00 0.03 0.03 96 1018.1
20260906115043 20 47 0.0 3.2 0.00 0.03 0.03 96 1018.2
20260906114602 20 47 0.0 3.2 0.00 0.03 0.03 96 1018.3
20260906114402 20 47 0.0 3.2 0.00 0.03 0.03 96 1018.2
20260906114308 20 47 0.0 3.2 0.00 0.03 0.03 96 1018.1
20260906114301 20 47 0.0 3.2 0.00 0.03 0.03 96 1018.2
20260906114100 20 47 0.0 1.6 0.00 0.03 0.03 96 1018.1
20260906114044 20 47 0.0 1.6 0.00 0.03 0.03 97 1018.2
20260906114012 20 47 0.0 1.6 0.00 0.03 0.03 96 1018.1
20260906113603 20 47 0.0 1.6 0.00 0.03 0.03 97 1018.1
20260906113505 19 47 0.0 1.6 0.00 0.03 0.03 96 1018.1
20260906113303 19 47 0.0 1.6 0.00 0.03 0.03 96 1018.1
20260906113203 19 47 0.0 1.6 0.00 0.03 0.03 96 1018.1
20260906113003 19 47 0.0 0.0 0.00 0.03 0.03 96 1018.1
20260906112911 19 47 0.0 0.0 0.00 0.03 0.03 96 1018.0
20260906112803 19 47 0.0 0.0 0.00 0.03 0.03 96 1018.0
20260906112603 19 47 0.0 0.0 0.00 0.03 0.03 96 1018.0
20260906112403 19 47 0.0 0.0 0.00 0.03 0.03 96 1018.0
20260906112252 19 47 0.0 0.0 0.00 0.03 0.03 96 1018.0
20260906112209 20 47 0.0 0.0 0.00 0.03 0.03 96 1018.0
20260906112204 19 47 0.0 0.0 0.00 0.03 0.03 96 1018.0
20260906112050 20 47 0.0 0.0 0.00 0.03 0.03 96 1018.0
20260906112036 19 47 0.0 0.0 0.00 0.03 0.03 96 1018.1
20260906111604 20 47 0.0 0.0 0.00 0.03 0.03 96 1018.0
20260906111402 20 47 0.0 0.0 0.00 0.03 0.03 96 1018.0
20260906111251 20 47 0.0 0.0 0.00 0.03 0.03 96 1018.1
20260906111202 20 47 0.0 0.0 0.00 0.03 0.03 96 1018.0
20260906111105 20 47 0.0 0.0 0.00 0.03 0.03 96 1018.2
20260906111046 20 47 0.0 0.0 0.00 0.03 0.03 96 1018.2
20260906111033 20 47 0.0 0.0 0.00 0.03 0.03 96 1018.1
20260906110602 20 47 0.0 0.0 0.00 0.03 0.03 96 1018.1
20260906110459 20 47 0.0 0.0 0.00 0.03 0.03 96 1018.2
20260906110248 20 47 0.0 0.0 0.00 0.03 0.03 96 1018.0
20260906110204 20 47 0.0 0.0 0.00 0.03 0.03 96 1018.1
20260906110047 20 47 0.0 0.0 0.00 0.03 0.03 96 1017.9
20260906110034 20 47 0.0 0.0 0.00 0.03 0.03 96 1018.0
20260906110011 20 47 0.0 0.0 0.00 0.03 0.03 96 1017.9
20260906105605 20 47 0.0 0.0 0.00 0.03 0.03 96 1017.9
20260906105457 20 47 0.0 0.0 0.00 0.03 0.03 96 1017.9
20260906105245 20 47 0.0 0.0 0.00 0.03 0.03 96 1017.9
20260906105156 20 47 0.0 0.0 0.00 0.03 0.03 96 1017.8
20260906105055 20 47 0.0 0.0 0.00 0.03 0.03 96 1017.8
20260906104749 20 47 0.0 0.0 0.00 0.03 0.03 96 1017.9
20260906104552 20 47 0.0 0.0 0.00 0.03 0.03 96 1017.8
20260906104351 20 47 0.0 0.0 0.00 0.03 0.03 96 1017.8
20260906104251 20 47 0.0 0.0 0.00 0.03 0.03 96 1017.8
20260906104147 20 47 0.0 0.0 0.00 0.03 0.03 96 1017.8
20260906104047 20 47 0.0 1.6 0.00 0.03 0.03 96 1017.9
20260906103753 20 47 0.0 1.6 0.00 0.03 0.03 96 1017.9
20260906103548 20 47 0.0 1.6 0.00 0.03 0.03 96 1017.9
20260906103527 20 47 0.0 1.6 0.00 0.03 0.03 96 1017.9
20260906103506 20 47 0.0 1.6 0.00 0.03 0.03 96 1017.9
20260906103132 20 47 0.0 1.6 0.00 0.03 0.03 96 1017.9
20260906102932 20 47 0.0 0.0 0.00 0.03 0.03 96 1017.9
20260906102753 20 47 0.0 0.0 0.00 0.03 0.03 96 1017.9
20260906102730 20 47 0.0 0.0 0.00 0.03 0.03 96 1017.8
20260906102517 20 47 0.0 0.0 0.00 0.03 0.03 96 1017.9
20260906102501 20 47 0.0 0.0 0.00 0.03 0.03 96 1017.8
20260906102133 20 47 0.0 0.0 0.00 0.03 0.03 96 1017.9
20260906101934 20 47 0.0 0.0 0.00 0.03 0.03 96 1017.9
20260906101734 -17 47 0.0 0.0 0.00 0.03 0.03 1017.9
20260906101348 -17 0.0 0.0 0.00 0.03 0.03
20260906101340 -17 0.0 0.0 0.00 0.03 0.03
20260906101320 -17 0.0 0.0 0.00 0.03 0.03
20260906100706 -17 0.0 0.0 0.00 0.03 0.03
20260906100605 -17 0.0 0.0 0.00 0.03 0.03
20260906100435 -17 0.0 0.0 0.00 0.03 0.03
20260906100235 -17 0.0 0.0 0.00 0.03 0.03 1017.6
20260906100035 -17 0.0 0.0 0.00 0.03 0.03 1017.6
20260906095934 20 44 0.0 0.0 0.00 0.03 0.03 96 1017.6
20260906095634 20 44 0.0 0.0 0.00 0.03 0.03 96 1017.6
20260906095517 20 44 0.0 0.0 0.00 0.03 0.03 96 1017.7
20260906095509 20 44 0.0 0.0 0.00 0.03 0.03 96 1017.6
20260906095208 20 44 0.0 0.0 0.00 0.03 0.03 96 1017.6
20260906095010 20 44 0.0 0.0 0.00 0.03 0.03 96 1017.6
20260906094808 20 44 0.0 0.0 0.00 0.03 0.03 96 1017.5
20260906094609 20 44 0.0 0.0 0.00 0.03 0.03 96 1017.5
20260906094520 20 44 0.0 0.0 0.00 0.03 0.03 96 1017.5
20260906094509 20 44 0.0 0.0 0.00 0.03 0.03 96 1017.5
20260906094208 20 44 0.0 0.0 0.00 0.03 0.03 96 1017.5
20260906094119 20 44 0.0 0.0 0.00 0.03 0.03 96 1017.5
20260906094011 20 44 0.0 0.0 0.00 0.03 0.03 96 1017.5
20260906093809 20 44 0.0 0.0 0.00 0.03 0.03 96 1017.4
20260906093611 20 44 0.0 0.0 0.00 0.03 0.03 96 1017.5
20260906093509 20 44 0.0 0.0 0.00 0.03 0.03 96 1017.4
20260906093409 20 44 0.0 0.0 0.00 0.03 0.03 96 1017.4
20260906093209 20 44 0.0 0.0 0.00 0.03 0.03 96 1017.4
20260906093112 20 44 0.0 1.6 0.00 0.03 0.03 96 1017.4
20260906093011 20 44 0.0 1.6 0.00 0.03 0.03 96 1017.4
20260906092809 20 44 0.0 1.6 0.00 0.03 0.03 96 1017.3
20260906092707 20 44 0.0 1.6 0.00 0.03 0.03 96 1017.3
20260906092508 20 44 0.0 1.6 0.00 0.03 0.03 96 1017.3
20260906092410 20 44 0.0 3.2 0.00 0.03 0.03 96 1017.2
20260906092211 20 44 0.0 6.4 0.00 0.03 0.03 96 1017.2
20260906092010 20 44 0.0 6.4 0.00 0.03 0.03 96 1017.2
20260906091809 20 45 0.0 6.4 0.00 0.03 0.03 96 1017.1
20260906091609 20 45 0.0 6.4 0.00 0.03 0.03 96 1017.1
20260906091509 20 45 0.0 6.4 0.00 0.03 0.03 96 1017.1
20260906091411 20 45 0.0 6.4 0.00 0.03 0.03 95 1017.0
20260906091209 20 55 0.0 4.8 0.00 0.03 0.03 95 1017.0
20260906091026 20 55 0.0 4.8 0.00 0.03 0.03 96 1017.0
20260906091009 20 55 0.0 4.8 0.00 0.03 0.03 96 1017.0
20260906090609 21 58 0.0 4.8 0.00 0.03 0.03 96 1017.0
20260906090508 21 58 0.0 4.8 0.00 0.03 0.03 96 1017.0
20260906090409 21 58 0.0 6.4 0.00 0.03 0.03 96 1017.1
20260906090210 21 49 0.0 6.4 0.00 0.03 0.03 96 1017.1
20260906090011 21 48 0.0 6.4 0.00 0.03 0.03 96 1017.1
20260906085809 21 48 0.0 6.4 0.00 0.03 0.03 96 1017.1
20260906085615 21 47 0.0 3.2 0.00 0.03 0.03 95 1017.1
20260906085608 21 48 0.0 6.4 0.00 0.03 0.03 96 1017.1
20260906085508 21 48 0.0 6.4 0.00 0.03 0.03 95 1017.1
20260906085209 21 44 0.0 3.2 0.00 0.03 0.03 95 1017.2
20260906085009 21 42 0.0 4.8 0.00 0.03 0.03 95 1017.2
20260906084809 21 42 0.0 4.8 0.00 0.03 0.03 95 1017.1
20260906084609 21 42 0.0 4.8 0.00 0.03 0.03 95 1017.2
20260906084508 21 42 0.0 4.8 0.00 0.03 0.03 95 1017.1
20260906084408 21 42 0.0 4.8 0.00 0.03 0.03 95 1017.1
20260906084209 21 42 0.0 4.8 0.00 0.03 0.03 95 1017.1
20260906084009 21 44 0.0 4.8 0.00 0.03 0.03 95 1017.1
20260906083809 21 65 0.0 3.2 0.00 0.03 0.03 95 1017.0
20260906083609 21 44 0.0 3.2 0.00 0.03 0.03 95 1016.9
20260906083507 21 41 0.0 3.2 0.00 0.03 0.03 95 1016.9
20260906083409 21 41 0.0 3.2 0.00 0.03 0.03 95 1016.9
20260906083213 21 41 0.0 1.6 0.00 0.03 0.03 95 1016.9
20260906083111 21 39 0.0 3.2 0.00 0.03 0.03 95 1016.9
20260906083009 21 39 0.0 3.2 0.00 0.03 0.03 95 1016.9
20260906082811 21 39 0.0 3.2 0.00 0.03 0.03 95 1016.9
20260906082710 21 39 0.0 3.2 0.00 0.03 0.03 96 1016.8
20260906082509 21 39 0.0 4.8 0.00 0.03 0.03 96 1016.9
20260906082408 21 39 0.0 4.8 0.00 0.03 0.03 96 1016.8
20260906082211 21 39 0.0 4.8 0.00 0.03 0.03 96 1016.9
20260906082009 21 39 0.0 4.8 0.00 0.03 0.03 96 1016.9
20260906081810 21 20 0.0 4.8 0.00 0.03 0.03 95 1016.8
20260906081710 21 47 0.0 6.4 0.00 0.03 0.03 95 1016.8
20260906081508 21 39 0.0 6.4 0.00 0.03 0.03 95 1016.8
20260906081410 21 39 0.0 6.4 0.00 0.03 0.03 96 1016.8
20260906081308 21 41 0.0 6.4 0.00 0.03 0.03 96 1016.9
20260906081009 21 38 0.0 6.4 0.00 0.03 0.03 96 1016.8
20260906080809 21 52 0.0 6.4 0.00 0.03 0.03 95 1016.9
20260906080609 21 44 0.0 6.4 0.00 0.03 0.03 95 1016.9
20260906080507 21 45 0.0 6.4 0.00 0.03 0.03 95 1016.9
20260906080410 21 47 0.0 6.4 0.00 0.03 0.03 95 1016.8
20260906080311 21 48 0.0 6.4 0.00 0.03 0.03 95 1016.9
20260906080011 21 48 0.0 9.7 0.00 0.03 0.03 95 1016.9
20260906075809 21 39 0.0 9.7 0.00 0.03 0.03 95 1016.9
20260906075708 21 42 0.0 9.7 0.00 0.03 0.03 95 1016.9
20260906075517 21 41 0.0 9.7 0.00 0.03 0.03 96 1016.9
20260906075508 21 41 0.0 9.7 0.00 0.03 0.03 95 1016.9
20260906075208 21 97 0.0 9.7 0.00 0.03 0.03 95 1016.9
20260906075009 21 66 0.0 4.8 0.00 0.03 0.03 95 1016.9
20260906074809 21 96 0.0 4.8 0.00 0.03 0.03 95 1016.9
20260906074801 21 44 0.0 4.8 0.00 0.03 0.03 95 1016.9
20260906074736 21 44 0.0 4.8 0.00 0.03 0.03 95 1016.9
20260906074409 21 37 0.0 6.4 0.00 0.03 0.03 95 1016.9
20260906074313 21 44 0.0 6.4 0.00 0.03 0.03 95 1016.9
20260906074113 21 42 0.0 6.4 0.00 0.03 0.03 95 1016.9
20260906074009 21 42 0.0 6.4 0.00 0.03 0.03 95 1016.9
20260906073810 21 41 0.0 6.4 0.00 0.03 0.03 95 1016.9
20260906073758 21 41 0.0 6.4 0.00 0.03 0.03 95 1017.0
20260906073737 21 41 0.0 6.4 0.00 0.03 0.03 95 1017.0
20260906073409 21 42 0.0 4.8 0.00 0.03 0.03 95 1017.1
20260906073209 21 41 0.0 4.8 0.00 0.03 0.03 95 1017.1
20260906073009 21 41 0.0 4.8 0.00 0.03 0.03 95 1017.0
20260906072937 21 42 0.0 0.0 0.00 0.03 0.03 95 1017.0
20260906072809 21 45 0.0 3.2 0.00 0.03 0.03 95 1017.0
20260906072755 21 42 0.0 0.0 0.00 0.03 0.03 95 1017.0
20260906072409 21 42 0.0 0.0 0.00 0.03 0.03 95 1017.1
20260906072209 21 42 0.0 0.0 0.00 0.03 0.03 95 1017.1
20260906072008 21 44 0.0 0.0 0.00 0.03 0.03 95 1017.2
20260906071841 21 39 0.0 0.0 0.00 0.03 0.03 95 1017.2
20260906071808 21 41 0.0 0.0 0.00 0.03 0.03 95 1017.2
20260906071758 21 41 0.0 0.0 0.00 0.03 0.03 95 1017.3
20260906071754 21 41 0.0 0.0 0.00 0.03 0.03 95 1017.3
20260906071209 21 39 0.0 0.0 0.00 0.03 0.03 95 1017.3
20260906071009 21 37 0.0 0.0 0.00 0.03 0.03 95 1017.2
20260906070805 21 35 0.0 0.0 0.03 0.03 0.03 95 1017.3
20260906070659 21 34 0.0 0.0 0.03 0.03 0.03 95 1017.4
20260906070510 21 34 0.0 0.0 0.03 0.03 0.03 95 1017.4
20260906070404 21 34 0.0 0.0 0.03 0.03 0.03 95 1017.4
20260906070300 21 34 0.0 0.0 0.03 0.00 0.03 95 1017.3
20260906070247 21 35 0.0 0.0 0.03 0.03 0.03 95 1017.4
20260906065804 21 34 0.0 0.0 0.03 0.00 0.03 95 1017.4
20260906065602 21 32 0.0 0.0 0.03 0.00 0.03 95 1017.4
20260906065501 21 31 0.0 0.0 0.03 0.00 0.03 95 1017.4
20260906065403 21 31 0.0 0.0 0.03 0.00 0.03 95 1017.4
20260906065346 21 31 0.0 0.0 0.03 0.00 0.03 95 1017.3
20260906065300 21 3 0.0 0.0 0.03 0.00 0.03 95 1017.4
20260906065213 21 3 0.0 0.0 0.03 0.00 0.03 95 1017.4
20260906064802 21 0 0.0 0.0 0.03 0.00 0.03 95 1017.4
20260906064709 21 1 0.0 0.0 0.03 0.00 0.03 95 1017.5
20260906064501 21 35 0.0 0.0 0.03 0.00 0.03 95 1017.4
20260906064401 21 44 0.0 0.0 0.03 0.00 0.03 95 1017.5
20260906064258 21 44 0.0 0.0 0.03 0.00 0.03 95 1017.4
20260906064245 21 47 0.0 0.0 0.03 0.00 0.03 95 1017.5
20260906064217 21 44 0.0 0.0 0.03 0.00 0.03 95 1017.4
20260906063848 21 31 0.0 0.0 0.03 0.00 0.03 95 1017.5
20260906063546 21 32 0.0 0.0 0.03 0.00 0.03 95 1017.5
20260906063455 21 34 0.0 0.0 0.03 0.00 0.03 95 1017.5
20260906063344 21 32 0.0 0.0 0.03 0.00 0.03 95 1017.5
20260906063143 21 32 0.0 0.0 0.03 0.00 0.03 95 1017.4
20260906063040 21 32 0.0 0.0 0.03 0.00 0.03 95 1017.4
20260906062954 21 32 0.0 0.0 0.03 0.00 0.03 95 1017.4
20260906062743 21 32 0.0 0.0 0.03 0.00 0.03 95 1017.5
20260906062544 21 32 0.0 0.0 0.03 0.00 0.03 95 1017.5
20260906062450 21 55 0.0 0.0 0.03 0.00 0.03 95 1017.4
20260906062436 21 51 0.0 0.0 0.03 0.00 0.03 95 1017.4
20260906062138 21 109 0.0 0.0 0.03 0.00 0.03 95 1017.4
20260906061951 21 34 0.0 0.0 0.03 0.00 0.03 95 1017.4
20260906061934 21 16 0.0 0.0 0.03 0.00 0.03 95 1017.4
20260906061732 21 6 0.0 0.0 0.03 0.00 0.03 95 1017.4
20260906061631 21 0 0.0 0.0 0.03 0.00 0.03 95 1017.5
20260906061448 21 0 0.0 0.0 0.03 0.00 0.03 95 1017.6
20260906061329 21 0 0.0 0.0 0.03 0.00 0.03 95 1017.6
20260906061126 21 0 0.0 0.0 0.03 0.00 0.03 95 1017.5
20260906061034 21 0 0.0 0.0 0.03 0.00 0.00 95 1017.5
20260906060948 21 0 0.0 0.0 0.03 0.00 0.00 95 1017.5
20260906060728 21 0 0.0 0.0 0.00 0.00 0.00 95 1017.5
20260906060530 22 0 0.0 0.0 0.00 0.00 0.00 95 1017.5
20260906060445 21 0 0.0 0.0 0.00 0.00 0.00 95 1017.5
20260906060317 21 0 0.0 0.0 0.00 0.00 0.00 95 1017.5
20260906060217 22 0 0.0 0.0 0.00 0.00 0.00 95 1017.5
20260906055951 22 0 0.0 0.0 0.00 0.00 0.00 95 1017.4
20260906055914 22 0 0.0 0.0 0.00 0.00 0.00 95 1017.4
20260906055714 22 0 0.0 0.0 0.00 0.00 0.00 95 1017.4
20260906055516 22 61 0.0 0.0 0.00 0.00 0.00 95 1017.5
20260906055431 22 61 0.0 0.0 0.00 0.00 0.00 95 1017.5
20260906055310 22 61 0.0 0.0 0.00 0.00 0.00 95 1017.4
20260906055107 22 140 0.0 0.0 0.00 0.00 0.00 95 1017.5
20260906054905 22 140 0.0 0.0 0.00 0.00 0.00 94 1017.5
20260906054704 22 140 0.0 0.0 0.00 0.00 0.00 94 1017.5
20260906054506 22 140 0.0 0.0 0.00 0.00 0.00 94 1017.5
20260906054435 22 140 0.0 0.0 0.00 0.00 0.00 94 1017.5
20260906054347 22 140 0.0 0.0 0.00 0.00 0.00 94 1017.5
20260906054305 22 140 0.0 0.0 0.00 0.00 0.00 94 1017.5
20260906054153 22 140 0.0 0.0 0.00 0.00 0.00 94 1017.4
20260906053857 22 140 0.0 0.0 0.00 0.00 0.00 94 1017.5
20260906053657 22 140 0.0 0.0 0.00 0.00 0.00 94 1017.5
20260906053456 22 140 0.0 0.0 0.00 0.00 0.00 94 1017.5
20260906053410 22 140 0.0 0.0 0.00 0.00 0.00 94 1017.5
20260906053252 22 140 0.0 0.0 0.00 0.00 0.00 94 1017.4
20260906053159 22 140 0.0 0.0 0.00 0.00 0.00 94 1017.4
20260906053145 22 140 0.0 0.0 0.00 0.00 0.00 94 1017.4
20260906052854 22 140 0.0 0.0 0.00 0.00 0.00 94 1017.4
20260906052838 22 140 0.0 0.0 0.00 0.00 0.00 94 1017.5
20260906052445 22 140 0.0 0.0 0.00 0.00 0.00 94 1017.4
20260906052409 22 140 0.0 0.0 0.00 0.00 0.00 94 1017.4
20260906052243 22 140 0.0 0.0 0.00 0.00 0.00 94 1017.5
20260906052204 22 140 0.0 0.0 0.00 0.00 0.00 94 1017.5
20260906052146 22 140 0.0 0.0 0.00 0.00 0.00 94 1017.4
20260906051842 22 140 0.0 0.0 0.00 0.00 0.00 94 1017.4
20260906051643 22 140 0.0 0.0 0.00 0.00 0.00 94 1017.4
20260906051439 22 140 0.0 0.0 0.00 0.00 0.00 94 1017.5
20260906051408 22 140 0.0 0.0 0.00 0.00 0.00 94 1017.5
20260906051238 22 140 0.0 0.0 0.00 0.00 0.00 94 1017.5
20260906051140 22 140 0.0 0.0 0.00 0.00 0.00 94 1017.6
20260906050908 22 140 0.0 0.0 0.00 0.00 0.00 94 1017.5
20260906050839 22 140 0.0 0.0 0.00 0.00 0.00 94 1017.6
20260906050631 22 140 0.0 0.0 0.00 0.00 0.00 94 1017.6
20260906050407 22 140 0.0 0.0 0.00 0.00 0.00 94 1017.6
20260906050234 22 140 0.0 0.0 0.00 0.00 0.00 94 1017.6
20260906050107 22 140 0.0 0.0 0.00 0.00 0.00 94 1017.7
20260906045907 22 140 0.0 0.0 0.00 0.00 0.00 94 1017.7
20260906045807 22 140 0.0 0.0 0.00 0.00 0.00 94 1017.7
20260906045709 22 140 0.0 0.0 0.00 0.00 0.00 94 1017.7
20260906045412 22 140 0.0 0.0 0.00 0.00 0.00 94 1017.7
20260906045206 22 140 0.0 0.0 0.00 0.00 0.00 94 1017.7
20260906045007 22 140 0.0 0.0 0.00 0.00 0.00 94 1017.7
20260906044912 22 140 0.0 0.0 0.00 0.00 0.00 94 1017.7
20260906044805 22 140 0.0 0.0 0.00 0.00 0.00 94 1017.7
20260906044707 22 140 0.0 0.0 0.00 0.00 0.00 94 1017.7
20260906044409 22 140 0.0 0.0 0.00 0.00 0.00 94 1017.7
20260906044302 22 140 0.0 0.0 0.00 0.00 0.00 94 1017.8
20260906044008 22 140 0.0 0.0 0.00 0.00 0.00 94 1017.8
20260906043911 22 140 0.0 0.0 0.00 0.00 0.00 94 1017.8
20260906043807 22 140 0.0 0.0 0.00 0.00 0.00 94 1017.8
20260906043605 22 140 0.0 0.0 0.00 0.00 0.00 94 1017.8
20260906043407 -17 0.0 0.0 0.00 0.00 0.00 1017.7
20260906043107 -17 0.0 0.0 0.00 0.00 0.00
20260906042839 -17 0.0 0.0 0.00 0.00 0.00
20260906042734 -17 0.0 0.0 0.00 0.00 0.00
20260906042603 -17 0.0 0.0 0.00 0.00 0.00
20260906042435 -17 0.0 0.0 0.00 0.00 0.00
20260906042338 -17 0.0 0.0 0.00 0.00 0.00
20260906042102 -17 0.0 0.0 0.00 0.00 0.00
20260906042007 -17 0.0 0.0 0.00 0.00 0.00
20260906041840 -17 0.0 0.0 0.00 0.00 0.00 1017.8
20260906041818 -17 0.0 0.0 0.00 0.00 0.00 1017.8
20260906041406 22 140 0.0 0.0 0.00 0.00 0.00 93 1017.8
20260906041309 22 140 0.0 0.0 0.00 0.00 0.00 93 1017.8
20260906041051 22 140 0.0 0.0 0.00 0.00 0.00 93 1017.8
20260906040952 22 140 0.0 0.0 0.00 0.00 0.00 93 1017.8
20260906040917 22 140 0.0 0.0 0.00 0.00 0.00 93 1017.8
20260906040801 22 140 0.0 0.0 0.00 0.00 0.00 93 1017.8
20260906040352 22 140 0.0 0.0 0.00 0.00 0.00 93 1017.8
20260906040151 22 140 0.0 0.0 0.00 0.00 0.00 92 1017.8
20260906040036 22 140 0.0 0.0 0.00 0.00 0.00 92 1017.9
20260906035952 22 140 0.0 0.0 0.00 0.00 0.00 92 1017.9
20260906035922 22 140 0.0 0.0 0.00 0.00 0.00 92 1017.8
20260906035830 22 140 0.0 0.0 0.00 0.00 0.00 92 1017.8
20260906035754 22 140 0.0 0.0 0.00 0.00 0.00 92 1017.8
20260906035453 22 140 0.0 0.0 0.00 0.00 0.00 92 1017.8
20260906035151 22 140 0.0 0.0 0.00 0.00 0.00 92 1017.8
20260906035030 22 140 0.0 0.0 0.00 0.00 0.00 92 1017.8
20260906034951 22 140 0.0 0.0 0.00 0.00 0.00 92 1017.8
20260906034753 22 140 0.0 0.0 0.00 0.00 0.00 92 1017.8
20260906034531 22 140 0.0 0.0 0.00 0.00 0.00 92 1017.7
20260906034452 22 140 0.0 0.0 0.00 0.00 0.00 92 1017.7
20260906034150 22 140 0.0 0.0 0.00 0.00 0.00 92 1017.7
20260906034053 22 140 0.0 0.0 0.00 0.00 0.00 92 1017.7
20260906034011 22 140 0.0 0.0 0.00 0.00 0.00 92 1017.7
20260906033811 22 140 0.0 0.0 0.00 0.00 0.00 92 1017.7
20260906033804 22 140 0.0 0.0 0.00 0.00 0.00 92 1017.8
20260906033736 22 140 0.0 0.0 0.00 0.00 0.00 92 1017.6
20260906033351 22 140 0.0 0.0 0.00 0.00 0.00 92 1017.7
20260906033156 22 140 0.0 0.0 0.00 0.00 0.00 91 1017.7
20260906033052 22 140 0.0 0.0 0.00 0.00 0.00 91 1017.7
20260906033013 22 140 0.0 0.0 0.00 0.00 0.00 91 1017.7
20260906032834 22 140 0.0 0.0 0.00 0.00 0.00 91 1017.7
20260906032802 22 140 0.0 0.0 0.00 0.00 0.00 91 1017.7
20260906032756 22 140 0.0 0.0 0.00 0.00 0.00 91 1017.7
20260906032351 22 140 0.0 0.0 0.00 0.00 0.00 91 1017.8
20260906032152 22 140 0.0 0.0 0.00 0.00 0.00 91 1017.6
20260906032008 22 140 0.0 0.0 0.00 0.00 0.00 91 1017.7
20260906031951 22 140 0.0 0.0 0.00 0.00 0.00 91 1017.7
20260906031828 22 140 0.0 0.0 0.00 0.00 0.00 91 1017.7
20260906031755 22 140 0.0 0.0 0.00 0.00 0.00 91 1017.6
20260906031751 22 140 0.0 0.0 0.00 0.00 0.00 91 1017.6
20260906031347 22 140 0.0 0.0 0.00 0.00 0.00 91 1017.6
20260906031247 22 140 0.0 0.0 0.00 0.00 0.00 91 1017.6
20260906031003 22 140 0.0 0.0 0.00 0.00 0.00 91 1017.6
20260906030946 22 140 0.0 0.0 0.00 0.00 0.00 91 1017.7
20260906030746 22 140 0.0 0.0 0.00 0.00 0.00 91 1017.8
20260906030546 22 140 0.0 0.0 0.00 0.00 0.00 91 1017.8
20260906030516 22 140 0.0 0.0 0.00 0.00 0.00 91 1017.8
20260906030341 22 140 0.0 0.0 0.00 0.00 0.00 91 1017.8
20260906030242 22 140 0.0 0.0 0.00 0.00 0.00 91 1017.9
20260906030002 22 140 0.0 0.0 0.00 0.00 0.00 91 1017.8
20260906025933 22 140 0.0 0.0 0.00 0.00 0.00 91 1017.7
20260906025832 22 140 0.0 0.0 0.00 0.00 0.00 91 1017.7
20260906025503 22 140 0.0 0.0 0.00 0.00 0.00 91 1017.8
20260906025332 23 140 0.0 0.0 0.00 0.00 0.00 91 1017.9
20260906025130 23 140 0.0 0.0 0.00 0.00 0.00 91 1017.9
20260906025006 23 140 0.0 0.0 0.00 0.00 0.00 91 1017.9
20260906024930 23 140 0.0 0.0 0.00 0.00 0.00 91 1017.9
20260906024829 23 140 0.0 0.0 0.00 0.00 0.00 91 1017.9
20260906024532 23 140 0.0 0.0 0.00 0.00 0.00 91 1018.0
20260906024502 23 140 0.0 0.0 0.00 0.00 0.00 90 1018.0
20260906024428 23 140 0.0 0.0 0.00 0.00 0.00 91 1018.0
20260906024116 23 140 0.0 0.0 0.00 0.00 0.00 90 1018.0
20260906024004 23 140 0.0 0.0 0.00 0.00 0.00 90 1018.0
20260906023915 23 140 0.0 0.0 0.00 0.00 0.00 91 1018.0
20260906023713 23 140 0.0 0.0 0.00 0.00 0.00 90 1017.8
20260906023515 23 140 0.0 0.0 0.00 0.00 0.00 90 1017.8
20260906023501 23 140 0.0 0.0 0.00 0.00 0.00 90 1017.8
20260906023409 23 140 0.0 0.0 0.00 0.00 0.00 90 1017.8
20260906023111 23 140 0.0 0.0 0.00 0.00 0.00 90 1017.7
20260906022959 23 140 0.0 0.0 0.00 0.00 0.00 90 1017.7
20260906022906 23 140 0.0 0.0 0.00 0.00 0.00 90 1017.7
20260906022707 23 140 0.0 0.0 0.00 0.00 0.00 90 1017.7
20260906022510 23 140 0.0 0.0 0.00 0.00 0.00 90 1017.6
20260906022501 23 140 0.0 0.0 0.00 0.00 0.00 90 1017.6
20260906022404 23 140 0.0 0.0 0.00 0.00 0.00 90 1017.7
20260906022103 23 140 0.0 0.0 0.00 0.00 0.00 90 1017.6
20260906022014 23 140 0.0 0.0 0.00 0.00 0.00 90 1017.5
20260906021959 23 140 0.0 0.0 0.00 0.00 0.00 90 1017.6
20260906021702 23 140 0.0 0.0 0.00 0.00 0.00 90 1017.6
20260906021504 23 140 0.0 0.0 0.00 0.00 0.00 90 1017.4
20260906021453 23 140 0.0 0.0 0.00 0.00 0.00 90 1017.4
20260906021303 23 140 0.0 0.0 0.00 0.00 0.00 90 1017.5
20260906021103 23 140 0.0 0.0 0.00 0.00 0.00 89 1017.3
20260906020954 23 140 0.0 0.0 0.00 0.00 0.00 89 1017.3
20260906020702 23 140 0.0 0.0 0.00 0.00 0.00 89 1017.1
20260906020604 23 140 0.0 0.0 0.00 0.00 0.00 89 1017.1
20260906020453 23 140 0.0 0.0 0.00 0.00 0.00 89 1017.1
20260906020301 23 140 0.0 0.0 0.00 0.00 0.00 89 1017.1
20260906020057 23 140 0.0 0.0 0.00 0.00 0.00 88 1017.1
20260906015952 23 140 0.0 0.0 0.00 0.00 0.00 88 1017.0
20260906015857 23 140 0.0 0.0 0.00 0.00 0.00 88 1017.0
20260906015656 23 140 0.0 0.0 0.00 0.00 0.00 88 1016.9
20260906015558 23 140 0.0 0.0 0.00 0.00 0.00 88 1016.8
20260906015452 23 140 0.0 0.0 0.00 0.00 0.00 88 1016.8
20260906015256 23 140 0.0 0.0 0.00 0.00 0.00 88 1016.7
20260906015055 23 140 0.0 0.0 0.00 0.00 0.00 88 1016.7
20260906014952 23 140 0.0 0.0 0.00 0.00 0.00 88 1016.7
20260906014856 23 140 0.0 0.0 0.00 0.00 0.00 88 1016.7
20260906014746 23 140 0.0 0.0 0.00 0.00 0.00 88 1016.6
20260906014734 23 140 0.0 0.0 0.00 0.00 0.00 88 1016.6
20260906014704 23 140 0.0 0.0 0.00 0.00 0.00 88 1016.6
20260906014249 23 140 0.0 0.0 0.00 0.00 0.00 88 1016.6
20260906014152 23 140 0.0 0.0 0.00 0.00 0.00 87 1016.5
20260906013956 23 140 0.0 0.0 0.00 0.00 0.00 87 1016.5
20260906013947 -17 140 0.0 0.0 0.00 0.00 0.00 1016.5
20260906013647 -17 131 0.0 0.0 0.00 0.00 0.00 1016.4
20260906013452 -17 131 0.0 0.0 0.00 0.00 0.00 1016.4
20260906013205 -17 0.0 0.0 0.00 0.00 0.00
20260906013106 -17 0.0 0.0 0.00 0.00 0.00
20260906012838 -17 0.0 0.0 0.00 0.00 0.00
20260906012635 -17 0.0 0.0 0.00 0.00 0.00
20260906012534 -17 0.0 0.0 0.00 0.00 0.00
20260906012306 -17 0.0 0.0 0.00 0.00 0.00
20260906012131 -17 0.0 0.0 0.00 0.00 0.00
20260906012006 -17 0.0 0.0 0.00 0.00 0.00 1015.9
20260906011810 -17 0.0 0.0 0.00 0.00 0.00 1015.9
20260906011631 -17 0.0 0.0 0.00 0.00 0.00 1015.9
20260906011606 -17 118 0.0 0.0 0.00 0.00 0.00 1015.9
20260906011335 25 118 0.0 0.0 0.00 0.00 0.00 84 1015.9
20260906011135 25 118 0.0 0.0 0.00 0.00 0.00 84 1015.9
20260906011035 25 118 0.0 0.0 0.00 0.00 0.00 84 1015.9
20260906010734 25 118 0.0 0.0 0.00 0.00 0.00 84 1016.0
20260906010613 25 118 0.0 0.0 0.00 0.00 0.00 84 1016.0
20260906010532 25 118 0.0 0.0 0.00 0.00 0.00 84 1016.0
20260906010518 25 71 0.0 0.0 0.00 0.00 0.00 84 1015.9
20260906010106 25 71 0.0 0.0 0.00 0.00 0.00 84 1015.9
20260906005910 25 71 0.0 0.0 0.00 0.00 0.00 83 1015.9
20260906005709 25 71 0.0 0.0 0.00 0.00 0.00 83 1015.9
20260906005603 25 71 0.0 0.0 0.00 0.00 0.00 83 1016.0
20260906005507 25 71 0.0 0.0 0.00 0.00 0.00 83 1015.9
20260906005306 25 68 0.0 0.0 0.00 0.00 0.00 83 1015.9
20260906005106 25 69 0.0 0.0 0.00 0.00 0.00 83 1015.9
20260906005100 25 69 0.0 0.0 0.00 0.00 0.00 83 1015.8
20260906004704 25 69 0.0 0.0 0.00 0.00 0.00 82 1015.8
20260906004603 25 68 0.0 0.0 0.00 0.00 0.00 82 1015.8
20260906004502 25 68 0.0 0.0 0.00 0.00 0.00 82 1015.8
20260906004303 25 68 0.0 0.0 0.00 0.00 0.00 82 1015.8
20260906004105 25 73 0.0 0.0 0.00 0.00 0.00 82 1015.8
20260906003902 25 78 0.0 0.0 0.00 0.00 0.00 82 1015.7
20260906003709 25 100 0.0 0.0 0.00 0.00 0.00 81 1015.7
20260906003704 25 121 0.0 0.0 0.00 0.00 0.00 82 1015.8
20260906003603 25 100 0.0 0.0 0.00 0.00 0.00 82 1015.8
20260906003301 26 102 0.0 0.0 0.00 0.00 0.00 81 1015.7
20260906003108 26 127 0.0 0.0 0.00 0.00 0.00 81 1015.7
20260906003103 26 23 0.0 0.0 0.00 0.00 0.00 81 1015.7
20260906002852 26 23 0.0 0.0 0.00 0.00 0.00 81 1015.6
20260906002748 26 58 0.0 0.0 0.00 0.00 0.00 80 1015.7
20260906002603 26 58 0.0 0.0 0.00 0.00 0.00 80 1015.7
20260906002446 26 58 0.0 0.0 0.00 0.00 0.00 80 1015.8
20260906002438 26 56 0.0 0.0 0.00 0.00 0.00 80 1015.7
20260906002349 26 32 0.0 0.0 0.00 0.00 0.00 80 1015.7
20260906002040 26 38 0.0 0.0 0.00 0.00 0.00 80 1015.7
20260906001842 26 168 0.0 0.0 0.00 0.00 0.00 80 1015.7
20260906001638 26 110 0.0 0.0 0.00 0.00 0.00 79 1015.6
20260906001603 26 110 0.0 0.0 0.00 0.00 0.00 79 1015.6
20260906001435 26 173 0.0 0.0 0.00 0.00 0.00 79 1015.7
20260906001334 26 173 0.0 0.0 0.00 0.00 0.00 79 1015.6
20260906001102 26 173 0.0 0.0 0.00 0.00 0.00 79 1015.5
20260906001034 26 23 0.0 0.0 0.00 0.00 0.00 79 1015.5
20260906000934 26 23 0.0 0.0 0.00 0.00 0.00 78 1015.5
20260906000607 26 159 0.0 0.0 0.00 0.00 0.00 77 1015.5
20260906000434 26 159 0.0 0.0 0.00 0.00 0.00 77 1015.5
20260906000207 26 106 0.0 0.0 0.00 0.00 0.00 77 1015.5
20260906000004 26 28 0.0 0.0 0.00 0.00 0.00 77 1015.4
20260905235904 27 162 0.0 0.0 0.00 0.00 0.00 77 1015.5
20260905235602 27 104 0.0 0.0 0.00 0.00 0.00 77 1015.5
20260905235534 27 37 0.0 0.0 0.00 0.00 0.00 76 1015.5
20260905235459 27 285 0.0 0.0 0.00 0.00 0.00 76 1015.4
20260905235203 27 4 0.0 0.0 0.00 0.00 0.00 76 1015.5
20260905235035 27 4 0.0 0.0 0.00 0.00 0.00 76 1015.4
20260905234931 27 4 0.0 0.0 0.00 0.00 0.00 76 1015.4
20260905234723 27 41 0.0 0.0 0.00 0.00 0.00 76 1015.5
20260905234522 27 75 0.0 0.0 0.00 0.00 0.00 76 1015.4
20260905234236 -17 0.0 0.0 0.00 0.00 0.00
20260905234135 -17 0.0 0.0 0.00 0.00 0.00
20260905234003 -17 0.0 0.0 0.00 0.00 0.00
20260905233834 -17 0.0 0.0 0.00 0.00 0.00
20260905233735 -17 0.0 0.0 0.00 0.00 0.00
20260905233502 -17 0.0 0.0 0.00 0.00 0.00
20260905233407 -17 0.0 0.0 0.00 0.00 0.00
20260905233206 -17 0.0 0.0 0.00 0.00 0.00
20260905233007 -17 0.0 0.0 0.00 0.00 0.00 1015.4
20260905232807 -17 0.0 0.0 0.00 0.00 0.00 1015.4
20260905232634 27 39 0.0 6.4 0.00 0.00 0.00 75 1015.4
20260905232435 27 39 0.0 11.3 0.00 0.00 0.00 75 1015.4
20260905232336 27 39 0.0 11.3 0.00 0.00 0.00 75 1015.4
20260905232210 27 39 0.0 11.3 0.00 0.00 0.00 75 1015.4
20260905231912 27 39 0.0 11.3 0.00 0.00 0.00 75 1015.3